owner,sensor,date,latitude,longitude,air_pressure(mBar),qcFlag 
COMPS,ioos:station:USF.COMPS:FHP:1,2019-07-01T00:54:00,28.1530,-82.8010,1017.33,11111222 
COMPS,ioos:station:USF.COMPS:FHP:1,2019-07-01T01:54:00,28.1530,-82.8010,1017.68,11111222 
COMPS,ioos:station:USF.COMPS:FHP:1,2019-07-01T02:54:00,28.1530,-82.8010,1018.05,11111222 
COMPS,ioos:station:USF.COMPS:FHP:1,2019-07-01T03:54:00,28.1530,-82.8010,1018.08,11111222 
COMPS,ioos:station:USF.COMPS:FHP:1,2019-07-01T04:54:00,28.1530,-82.8010,1018.13,11111222 
COMPS,ioos:station:USF.COMPS:FHP:1,2019-07-01T05:54:00,28.1530,-82.8010,1017.62,11111222 
COMPS,ioos:station:USF.COMPS:FHP:1,2019-07-01T06:54:00,28.1530,-82.8010,1017.54,11111222 
COMPS,ioos:station:USF.COMPS:FHP:1,2019-07-01T07:54:00,28.1530,-82.8010,1016.98,11111222 
COMPS,ioos:station:USF.COMPS:FHP:1,2019-07-01T08:54:00,28.1530,-82.8010,1016.85,11111222 
COMPS,ioos:station:USF.COMPS:FHP:1,2019-07-01T09:54:00,28.1530,-82.8010,1017.09,11111222 
COMPS,ioos:station:USF.COMPS:FHP:1,2019-07-01T10:54:00,28.1530,-82.8010,1017.04,11111222 
COMPS,ioos:station:USF.COMPS:FHP:1,2019-07-01T11:54:00,28.1530,-82.8010,1017.86,11111222 
COMPS,ioos:station:USF.COMPS:FHP:1,2019-07-01T12:54:00,28.1530,-82.8010,1017.97,11111222 
COMPS,ioos:station:USF.COMPS:FHP:1,2019-07-01T13:54:00,28.1530,-82.8010,1018.12,11111222 
COMPS,ioos:station:USF.COMPS:FHP:1,2019-07-01T15:54:00,28.1530,-82.8010,1018.28,11111222 
COMPS,ioos:station:USF.COMPS:FHP:1,2019-07-01T16:54:00,28.1530,-82.8010,1018.29,11111222 
COMPS,ioos:station:USF.COMPS:FHP:1,2019-07-01T17:54:00,28.1530,-82.8010,1018.01,11111222 
COMPS,ioos:station:USF.COMPS:FHP:1,2019-07-01T18:54:00,28.1530,-82.8010,1017.54,11111222 
COMPS,ioos:station:USF.COMPS:FHP:1,2019-07-01T19:54:00,28.1530,-82.8010,1017.29,11111222 
COMPS,ioos:station:USF.COMPS:FHP:1,2019-07-01T20:54:00,28.1530,-82.8010,1016.82,11111222 
COMPS,ioos:station:USF.COMPS:FHP:1,2019-07-01T21:54:00,28.1530,-82.8010,1016.26,11111222 
COMPS,ioos:station:USF.COMPS:FHP:1,2019-07-01T22:54:00,28.1530,-82.8010,1016.37,11111222 
COMPS,ioos:station:USF.COMPS:FHP:1,2019-07-01T23:54:00,28.1530,-82.8010,1016.72,11111222 
COMPS,ioos:station:USF.COMPS:FHP:1,2019-07-02T00:54:00,28.1530,-82.8010,1016.6,11111222 
COMPS,ioos:station:USF.COMPS:FHP:1,2019-07-02T01:54:00,28.1530,-82.8010,1016.81,11111222 
COMPS,ioos:station:USF.COMPS:FHP:1,2019-07-02T02:54:00,28.1530,-82.8010,1017.17,11111222 
COMPS,ioos:station:USF.COMPS:FHP:1,2019-07-02T03:54:00,28.1530,-82.8010,1017.25,11111222 
COMPS,ioos:station:USF.COMPS:FHP:1,2019-07-02T04:54:00,28.1530,-82.8010,1016.54,11111222 
COMPS,ioos:station:USF.COMPS:FHP:1,2019-07-02T05:54:00,28.1530,-82.8010,1016.08,11111222 
COMPS,ioos:station:USF.COMPS:FHP:1,2019-07-02T06:54:00,28.1530,-82.8010,1015.84,11111222 
COMPS,ioos:station:USF.COMPS:FHP:1,2019-07-02T07:54:00,28.1530,-82.8010,1015.44,11111222 
COMPS,ioos:station:USF.COMPS:FHP:1,2019-07-02T08:54:00,28.1530,-82.8010,1015.68,11111222 
COMPS,ioos:station:USF.COMPS:FHP:1,2019-07-02T09:54:00,28.1530,-82.8010,1015.97,11111222 
COMPS,ioos:station:USF.COMPS:FHP:1,2019-07-02T10:54:00,28.1530,-82.8010,1016.36,11111222 
COMPS,ioos:station:USF.COMPS:FHP:1,2019-07-02T11:54:00,28.1530,-82.8010,1016.76,11111222 
COMPS,ioos:station:USF.COMPS:FHP:1,2019-07-02T12:54:00,28.1530,-82.8010,1017.04,11111222 
COMPS,ioos:station:USF.COMPS:FHP:1,2019-07-02T13:54:00,28.1530,-82.8010,1017.49,11111222 
COMPS,ioos:station:USF.COMPS:FHP:1,2019-07-02T14:54:00,28.1530,-82.8010,1017.6,11111222 
COMPS,ioos:station:USF.COMPS:FHP:1,2019-07-02T15:54:00,28.1530,-82.8010,1017.64,11111222 
COMPS,ioos:station:USF.COMPS:FHP:1,2019-07-02T16:54:00,28.1530,-82.8010,1017.33,11111222 
COMPS,ioos:station:USF.COMPS:FHP:1,2019-07-02T17:54:00,28.1530,-82.8010,1016.89,11111222 
COMPS,ioos:station:USF.COMPS:FHP:1,2019-07-02T18:54:00,28.1530,-82.8010,1015.74,11111222 
COMPS,ioos:station:USF.COMPS:FHP:1,2019-07-02T19:54:00,28.1530,-82.8010,1015.02,11111222 
COMPS,ioos:station:USF.COMPS:FHP:1,2019-07-02T20:54:00,28.1530,-82.8010,1014.9,11111222 
COMPS,ioos:station:USF.COMPS:FHP:1,2019-07-02T21:54:00,28.1530,-82.8010,1014.38,11111222 
COMPS,ioos:station:USF.COMPS:FHP:1,2019-07-02T22:54:00,28.1530,-82.8010,1014.1,11111222 
COMPS,ioos:station:USF.COMPS:FHP:1,2019-07-02T23:54:00,28.1530,-82.8010,1014.44,11111222 
COMPS,ioos:station:USF.COMPS:FHP:1,2019-07-03T00:54:00,28.1530,-82.8010,1014.73,11111222 
COMPS,ioos:station:USF.COMPS:FHP:1,2019-07-03T01:54:00,28.1530,-82.8010,1014.78,11111222 
COMPS,ioos:station:USF.COMPS:FHP:1,2019-07-03T02:54:00,28.1530,-82.8010,1015.25,11111222 
COMPS,ioos:station:USF.COMPS:FHP:1,2019-07-03T03:54:00,28.1530,-82.8010,1015.78,11111222 
COMPS,ioos:station:USF.COMPS:FHP:1,2019-07-03T04:54:00,28.1530,-82.8010,1015.32,11111222 
COMPS,ioos:station:USF.COMPS:FHP:1,2019-07-03T05:54:00,28.1530,-82.8010,1015.02,11111222 
COMPS,ioos:station:USF.COMPS:FHP:1,2019-07-03T06:54:00,28.1530,-82.8010,1014.56,11111222 
COMPS,ioos:station:USF.COMPS:FHP:1,2019-07-03T07:54:00,28.1530,-82.8010,1014.01,11111222 
COMPS,ioos:station:USF.COMPS:FHP:1,2019-07-03T08:54:00,28.1530,-82.8010,1013.89,11111222 
COMPS,ioos:station:USF.COMPS:FHP:1,2019-07-03T09:54:00,28.1530,-82.8010,1014.26,11111222 
COMPS,ioos:station:USF.COMPS:FHP:1,2019-07-03T10:54:00,28.1530,-82.8010,1014.82,11111222 
COMPS,ioos:station:USF.COMPS:FHP:1,2019-07-03T11:54:00,28.1530,-82.8010,1015.1,11111222 
COMPS,ioos:station:USF.COMPS:FHP:1,2019-07-03T12:54:00,28.1530,-82.8010,1015.61,11111222 
COMPS,ioos:station:USF.COMPS:FHP:1,2019-07-03T13:54:00,28.1530,-82.8010,1016.0,11111222 
COMPS,ioos:station:USF.COMPS:FHP:1,2019-07-03T14:54:00,28.1530,-82.8010,1015.96,11111222 
COMPS,ioos:station:USF.COMPS:FHP:1,2019-07-03T15:54:00,28.1530,-82.8010,1016.28,11111222 
COMPS,ioos:station:USF.COMPS:FHP:1,2019-07-03T16:54:00,28.1530,-82.8010,1015.9,11111222 
COMPS,ioos:station:USF.COMPS:FHP:1,2019-07-03T17:54:00,28.1530,-82.8010,1015.69,11111222 
COMPS,ioos:station:USF.COMPS:FHP:1,2019-07-03T18:54:00,28.1530,-82.8010,1015.13,11111222 
COMPS,ioos:station:USF.COMPS:FHP:1,2019-07-03T19:54:00,28.1530,-82.8010,1014.3,11111222 
COMPS,ioos:station:USF.COMPS:FHP:1,2019-07-03T20:54:00,28.1530,-82.8010,1013.68,11111222 
COMPS,ioos:station:USF.COMPS:FHP:1,2019-07-03T21:54:00,28.1530,-82.8010,1013.09,11111222 
COMPS,ioos:station:USF.COMPS:FHP:1,2019-07-03T22:54:00,28.1530,-82.8010,1013.06,11111222 
COMPS,ioos:station:USF.COMPS:FHP:1,2019-07-03T23:54:00,28.1530,-82.8010,1014.93,11111222 
COMPS,ioos:station:USF.COMPS:FHP:1,2019-07-04T00:54:00,28.1530,-82.8010,1014.08,11111222 
COMPS,ioos:station:USF.COMPS:FHP:1,2019-07-04T01:54:00,28.1530,-82.8010,1014.54,11111222 
COMPS,ioos:station:USF.COMPS:FHP:1,2019-07-04T02:54:00,28.1530,-82.8010,1014.32,11111222 
COMPS,ioos:station:USF.COMPS:FHP:1,2019-07-04T03:54:00,28.1530,-82.8010,1014.5,11111222 
COMPS,ioos:station:USF.COMPS:FHP:1,2019-07-04T04:54:00,28.1530,-82.8010,1015.5,11111222 
COMPS,ioos:station:USF.COMPS:FHP:1,2019-07-04T05:54:00,28.1530,-82.8010,1015.37,11111222 
COMPS,ioos:station:USF.COMPS:FHP:1,2019-07-04T06:54:00,28.1530,-82.8010,1015.04,11111222 
COMPS,ioos:station:USF.COMPS:FHP:1,2019-07-04T07:54:00,28.1530,-82.8010,1014.14,11111222 
COMPS,ioos:station:USF.COMPS:FHP:1,2019-07-04T08:54:00,28.1530,-82.8010,1014.37,11111222 
COMPS,ioos:station:USF.COMPS:FHP:1,2019-07-04T09:54:00,28.1530,-82.8010,1014.22,11111222 
COMPS,ioos:station:USF.COMPS:FHP:1,2019-07-04T10:54:00,28.1530,-82.8010,1014.66,11111222 
COMPS,ioos:station:USF.COMPS:FHP:1,2019-07-04T11:54:00,28.1530,-82.8010,1015.26,11111222 
COMPS,ioos:station:USF.COMPS:FHP:1,2019-07-04T12:54:00,28.1530,-82.8010,1016.02,11111222 
COMPS,ioos:station:USF.COMPS:FHP:1,2019-07-04T13:54:00,28.1530,-82.8010,1016.1,11111222 
COMPS,ioos:station:USF.COMPS:FHP:1,2019-07-04T14:54:00,28.1530,-82.8010,1016.38,11111222 
COMPS,ioos:station:USF.COMPS:FHP:1,2019-07-04T15:54:00,28.1530,-82.8010,1016.34,11111222 
COMPS,ioos:station:USF.COMPS:FHP:1,2019-07-04T16:54:00,28.1530,-82.8010,1016.41,11111222 
COMPS,ioos:station:USF.COMPS:FHP:1,2019-07-04T17:54:00,28.1530,-82.8010,1016.16,11111222 
COMPS,ioos:station:USF.COMPS:FHP:1,2019-07-04T18:54:00,28.1530,-82.8010,1016.26,11111222 
COMPS,ioos:station:USF.COMPS:FHP:1,2019-07-04T19:54:00,28.1530,-82.8010,1014.68,11111222 
COMPS,ioos:station:USF.COMPS:FHP:1,2019-07-04T20:54:00,28.1530,-82.8010,1014.77,11111222 
COMPS,ioos:station:USF.COMPS:FHP:1,2019-07-04T21:54:00,28.1530,-82.8010,1015.45,11111222 
COMPS,ioos:station:USF.COMPS:FHP:1,2019-07-04T22:54:00,28.1530,-82.8010,1014.93,11111222 
COMPS,ioos:station:USF.COMPS:FHP:1,2019-07-04T23:54:00,28.1530,-82.8010,1015.29,11111222 
COMPS,ioos:station:USF.COMPS:FHP:1,2019-07-05T00:54:00,28.1530,-82.8010,1015.69,11111222 
COMPS,ioos:station:USF.COMPS:FHP:1,2019-07-05T01:54:00,28.1530,-82.8010,1016.56,11111222 
COMPS,ioos:station:USF.COMPS:FHP:1,2019-07-05T02:54:00,28.1530,-82.8010,1016.98,11111222 
COMPS,ioos:station:USF.COMPS:FHP:1,2019-07-05T03:54:00,28.1530,-82.8010,1017.62,11111222 
COMPS,ioos:station:USF.COMPS:FHP:1,2019-07-05T04:54:00,28.1530,-82.8010,1017.53,11111222 
COMPS,ioos:station:USF.COMPS:FHP:1,2019-07-05T05:54:00,28.1530,-82.8010,1016.98,11111222 
COMPS,ioos:station:USF.COMPS:FHP:1,2019-07-05T06:54:00,28.1530,-82.8010,1016.62,11111222 
COMPS,ioos:station:USF.COMPS:FHP:1,2019-07-05T07:54:00,28.1530,-82.8010,1016.72,11111222 
COMPS,ioos:station:USF.COMPS:FHP:1,2019-07-05T08:54:00,28.1530,-82.8010,1016.48,11111222 
COMPS,ioos:station:USF.COMPS:FHP:1,2019-07-05T09:54:00,28.1530,-82.8010,1016.54,11111222 
COMPS,ioos:station:USF.COMPS:FHP:1,2019-07-05T10:54:00,28.1530,-82.8010,1017.12,11111222 
COMPS,ioos:station:USF.COMPS:FHP:1,2019-07-05T11:54:00,28.1530,-82.8010,1017.7,11111222 
COMPS,ioos:station:USF.COMPS:FHP:1,2019-07-05T12:54:00,28.1530,-82.8010,1018.26,11111222 
COMPS,ioos:station:USF.COMPS:FHP:1,2019-07-05T13:54:00,28.1530,-82.8010,1018.49,11111222 
COMPS,ioos:station:USF.COMPS:FHP:1,2019-07-05T14:54:00,28.1530,-82.8010,1018.9,11111222 
COMPS,ioos:station:USF.COMPS:FHP:1,2019-07-05T15:54:00,28.1530,-82.8010,1018.98,11111222 
COMPS,ioos:station:USF.COMPS:FHP:1,2019-07-05T16:54:00,28.1530,-82.8010,1018.61,11111222 
COMPS,ioos:station:USF.COMPS:FHP:1,2019-07-05T17:54:00,28.1530,-82.8010,1018.12,11111222 
COMPS,ioos:station:USF.COMPS:FHP:1,2019-07-05T18:54:00,28.1530,-82.8010,1017.76,11111222 
COMPS,ioos:station:USF.COMPS:FHP:1,2019-07-05T19:54:00,28.1530,-82.8010,1018.01,11111222 
COMPS,ioos:station:USF.COMPS:FHP:1,2019-07-05T20:54:00,28.1530,-82.8010,1018.4,11111222 
COMPS,ioos:station:USF.COMPS:FHP:1,2019-07-05T21:54:00,28.1530,-82.8010,1017.74,11111222 
COMPS,ioos:station:USF.COMPS:FHP:1,2019-07-05T22:54:00,28.1530,-82.8010,1017.44,11111222 
COMPS,ioos:station:USF.COMPS:FHP:1,2019-07-05T23:54:00,28.1530,-82.8010,1018.44,11111222 
COMPS,ioos:station:USF.COMPS:FHP:1,2019-07-06T00:54:00,28.1530,-82.8010,1018.69,11111222 
COMPS,ioos:station:USF.COMPS:FHP:1,2019-07-06T01:54:00,28.1530,-82.8010,1018.69,11111222 
COMPS,ioos:station:USF.COMPS:FHP:1,2019-07-06T02:54:00,28.1530,-82.8010,1018.56,11111222 
COMPS,ioos:station:USF.COMPS:FHP:1,2019-07-06T03:54:00,28.1530,-82.8010,1018.94,11111222 
COMPS,ioos:station:USF.COMPS:FHP:1,2019-07-06T04:54:00,28.1530,-82.8010,1018.88,11111222 
COMPS,ioos:station:USF.COMPS:FHP:1,2019-07-06T05:54:00,28.1530,-82.8010,1018.61,11111222 
COMPS,ioos:station:USF.COMPS:FHP:1,2019-07-06T06:54:00,28.1530,-82.8010,1018.1,11111222 
COMPS,ioos:station:USF.COMPS:FHP:1,2019-07-06T07:54:00,28.1530,-82.8010,1017.72,11111222 
COMPS,ioos:station:USF.COMPS:FHP:1,2019-07-06T08:54:00,28.1530,-82.8010,1017.54,11111222 
COMPS,ioos:station:USF.COMPS:FHP:1,2019-07-06T09:54:00,28.1530,-82.8010,1017.68,11111222 
COMPS,ioos:station:USF.COMPS:FHP:1,2019-07-06T10:54:00,28.1530,-82.8010,1018.38,11111222 
COMPS,ioos:station:USF.COMPS:FHP:1,2019-07-06T11:54:00,28.1530,-82.8010,1018.78,11111222 
COMPS,ioos:station:USF.COMPS:FHP:1,2019-07-06T12:54:00,28.1530,-82.8010,1019.05,11111222 
COMPS,ioos:station:USF.COMPS:FHP:1,2019-07-06T13:54:00,28.1530,-82.8010,1018.82,11111222 
COMPS,ioos:station:USF.COMPS:FHP:1,2019-07-06T14:54:00,28.1530,-82.8010,1019.06,11111222 
COMPS,ioos:station:USF.COMPS:FHP:1,2019-07-06T15:54:00,28.1530,-82.8010,1019.1,11111222 
COMPS,ioos:station:USF.COMPS:FHP:1,2019-07-06T16:54:00,28.1530,-82.8010,1018.9,11111222 
COMPS,ioos:station:USF.COMPS:FHP:1,2019-07-06T17:54:00,28.1530,-82.8010,1019.01,11111222 
COMPS,ioos:station:USF.COMPS:FHP:1,2019-07-06T18:54:00,28.1530,-82.8010,1018.97,11111222 
COMPS,ioos:station:USF.COMPS:FHP:1,2019-07-06T19:54:00,28.1530,-82.8010,1017.22,11111222 
COMPS,ioos:station:USF.COMPS:FHP:1,2019-07-06T20:54:00,28.1530,-82.8010,1017.4,11111222 
COMPS,ioos:station:USF.COMPS:FHP:1,2019-07-06T21:54:00,28.1530,-82.8010,1017.81,11111222 
COMPS,ioos:station:USF.COMPS:FHP:1,2019-07-06T22:54:00,28.1530,-82.8010,1017.92,11111222 
COMPS,ioos:station:USF.COMPS:FHP:1,2019-07-06T23:54:00,28.1530,-82.8010,1017.85,11111222 
COMPS,ioos:station:USF.COMPS:FHP:1,2019-07-07T00:54:00,28.1530,-82.8010,1017.73,11111222 
COMPS,ioos:station:USF.COMPS:FHP:1,2019-07-07T01:54:00,28.1530,-82.8010,1017.93,11111222 
COMPS,ioos:station:USF.COMPS:FHP:1,2019-07-07T02:54:00,28.1530,-82.8010,1016.96,11111222 
COMPS,ioos:station:USF.COMPS:FHP:1,2019-07-07T03:54:00,28.1530,-82.8010,1017.37,11111222 
COMPS,ioos:station:USF.COMPS:FHP:1,2019-07-07T04:54:00,28.1530,-82.8010,1016.73,11111222 
COMPS,ioos:station:USF.COMPS:FHP:1,2019-07-07T05:54:00,28.1530,-82.8010,1016.64,11111222 
COMPS,ioos:station:USF.COMPS:FHP:1,2019-07-07T06:54:00,28.1530,-82.8010,1016.46,11111222 
COMPS,ioos:station:USF.COMPS:FHP:1,2019-07-07T07:54:00,28.1530,-82.8010,1016.22,11111222 
COMPS,ioos:station:USF.COMPS:FHP:1,2019-07-07T08:54:00,28.1530,-82.8010,1016.49,11111222 
COMPS,ioos:station:USF.COMPS:FHP:1,2019-07-07T09:54:00,28.1530,-82.8010,1016.44,11111222 
COMPS,ioos:station:USF.COMPS:FHP:1,2019-07-07T10:54:00,28.1530,-82.8010,1016.78,11111222 
COMPS,ioos:station:USF.COMPS:FHP:1,2019-07-07T11:54:00,28.1530,-82.8010,1016.82,11111222 
COMPS,ioos:station:USF.COMPS:FHP:1,2019-07-07T12:54:00,28.1530,-82.8010,1017.01,11111222 
COMPS,ioos:station:USF.COMPS:FHP:1,2019-07-07T13:54:00,28.1530,-82.8010,1017.16,11111222 
COMPS,ioos:station:USF.COMPS:FHP:1,2019-07-07T14:54:00,28.1530,-82.8010,1016.64,11111222 
COMPS,ioos:station:USF.COMPS:FHP:1,2019-07-07T15:54:00,28.1530,-82.8010,1017.34,11111222 
COMPS,ioos:station:USF.COMPS:FHP:1,2019-07-07T16:54:00,28.1530,-82.8010,1017.06,11111222 
COMPS,ioos:station:USF.COMPS:FHP:1,2019-07-07T17:54:00,28.1530,-82.8010,1016.7,11111222 
COMPS,ioos:station:USF.COMPS:FHP:1,2019-07-07T18:54:00,28.1530,-82.8010,1015.94,11111222 
COMPS,ioos:station:USF.COMPS:FHP:1,2019-07-07T19:54:00,28.1530,-82.8010,1015.29,11111222 
COMPS,ioos:station:USF.COMPS:FHP:1,2019-07-07T20:54:00,28.1530,-82.8010,1014.77,11111222 
COMPS,ioos:station:USF.COMPS:FHP:1,2019-07-07T21:54:00,28.1530,-82.8010,1014.2,11111222 
COMPS,ioos:station:USF.COMPS:FHP:1,2019-07-07T22:54:00,28.1530,-82.8010,1014.68,11111222 
COMPS,ioos:station:USF.COMPS:FHP:1,2019-07-07T23:54:00,28.1530,-82.8010,1014.58,11111222 
COMPS,ioos:station:USF.COMPS:FHP:1,2019-07-08T00:54:00,28.1530,-82.8010,1014.52,11111222 
COMPS,ioos:station:USF.COMPS:FHP:1,2019-07-08T01:54:00,28.1530,-82.8010,1014.48,11111222 
COMPS,ioos:station:USF.COMPS:FHP:1,2019-07-08T02:54:00,28.1530,-82.8010,1014.62,11111222 
COMPS,ioos:station:USF.COMPS:FHP:1,2019-07-08T03:54:00,28.1530,-82.8010,1014.65,11111222 
COMPS,ioos:station:USF.COMPS:FHP:1,2019-07-08T04:54:00,28.1530,-82.8010,1014.57,11111222 
COMPS,ioos:station:USF.COMPS:FHP:1,2019-07-08T05:54:00,28.1530,-82.8010,1013.78,11111222 
COMPS,ioos:station:USF.COMPS:FHP:1,2019-07-08T06:54:00,28.1530,-82.8010,1013.24,11111222 
COMPS,ioos:station:USF.COMPS:FHP:1,2019-07-08T07:54:00,28.1530,-82.8010,1012.88,11111222 
COMPS,ioos:station:USF.COMPS:FHP:1,2019-07-08T08:54:00,28.1530,-82.8010,1012.85,11111222 
COMPS,ioos:station:USF.COMPS:FHP:1,2019-07-08T09:54:00,28.1530,-82.8010,1013.16,11111222 
COMPS,ioos:station:USF.COMPS:FHP:1,2019-07-08T10:54:00,28.1530,-82.8010,1013.65,11111222 
COMPS,ioos:station:USF.COMPS:FHP:1,2019-07-08T11:54:00,28.1530,-82.8010,1013.74,11111222 
COMPS,ioos:station:USF.COMPS:FHP:1,2019-07-08T12:54:00,28.1530,-82.8010,1014.9,11111222 
COMPS,ioos:station:USF.COMPS:FHP:1,2019-07-08T13:54:00,28.1530,-82.8010,1014.78,11111222 
COMPS,ioos:station:USF.COMPS:FHP:1,2019-07-08T14:54:00,28.1530,-82.8010,1015.45,11111222 
COMPS,ioos:station:USF.COMPS:FHP:1,2019-07-08T15:54:00,28.1530,-82.8010,1014.88,11111222 
COMPS,ioos:station:USF.COMPS:FHP:1,2019-07-08T16:54:00,28.1530,-82.8010,1014.58,11111222 
COMPS,ioos:station:USF.COMPS:FHP:1,2019-07-08T17:54:00,28.1530,-82.8010,1013.58,11111222 
COMPS,ioos:station:USF.COMPS:FHP:1,2019-07-08T18:54:00,28.1530,-82.8010,1013.08,11111222 
COMPS,ioos:station:USF.COMPS:FHP:1,2019-07-08T19:54:00,28.1530,-82.8010,1012.98,11111222 
COMPS,ioos:station:USF.COMPS:FHP:1,2019-07-08T20:54:00,28.1530,-82.8010,1012.78,11111222 
COMPS,ioos:station:USF.COMPS:FHP:1,2019-07-08T21:54:00,28.1530,-82.8010,1012.34,11111222 
COMPS,ioos:station:USF.COMPS:FHP:1,2019-07-08T22:54:00,28.1530,-82.8010,1012.17,11111222 
COMPS,ioos:station:USF.COMPS:FHP:1,2019-07-08T23:54:00,28.1530,-82.8010,1012.6,11111222 
COMPS,ioos:station:USF.COMPS:FHP:1,2019-07-09T00:54:00,28.1530,-82.8010,1012.97,11111222 
COMPS,ioos:station:USF.COMPS:FHP:1,2019-07-09T01:54:00,28.1530,-82.8010,1012.98,11111222 
COMPS,ioos:station:USF.COMPS:FHP:1,2019-07-09T02:54:00,28.1530,-82.8010,1013.08,11111222 
COMPS,ioos:station:USF.COMPS:FHP:1,2019-07-09T03:54:00,28.1530,-82.8010,1013.17,11111222 
COMPS,ioos:station:USF.COMPS:FHP:1,2019-07-09T04:54:00,28.1530,-82.8010,1013.41,11111222 
COMPS,ioos:station:USF.COMPS:FHP:1,2019-07-09T05:54:00,28.1530,-82.8010,1012.98,11111222 
COMPS,ioos:station:USF.COMPS:FHP:1,2019-07-09T06:54:00,28.1530,-82.8010,1012.77,11111222 
COMPS,ioos:station:USF.COMPS:FHP:1,2019-07-09T07:54:00,28.1530,-82.8010,1012.14,11111222 
COMPS,ioos:station:USF.COMPS:FHP:1,2019-07-09T08:54:00,28.1530,-82.8010,1012.56,11111222 
COMPS,ioos:station:USF.COMPS:FHP:1,2019-07-09T09:54:00,28.1530,-82.8010,1012.82,11111222 
COMPS,ioos:station:USF.COMPS:FHP:1,2019-07-09T10:54:00,28.1530,-82.8010,1012.86,11111222 
COMPS,ioos:station:USF.COMPS:FHP:1,2019-07-09T11:54:00,28.1530,-82.8010,1013.38,11111222 
COMPS,ioos:station:USF.COMPS:FHP:1,2019-07-09T12:54:00,28.1530,-82.8010,1013.84,11111222 
COMPS,ioos:station:USF.COMPS:FHP:1,2019-07-09T13:54:00,28.1530,-82.8010,1013.77,11111222 
COMPS,ioos:station:USF.COMPS:FHP:1,2019-07-09T14:54:00,28.1530,-82.8010,1014.42,11111222 
COMPS,ioos:station:USF.COMPS:FHP:1,2019-07-09T15:54:00,28.1530,-82.8010,1014.61,11111222 
COMPS,ioos:station:USF.COMPS:FHP:1,2019-07-09T16:54:00,28.1530,-82.8010,1014.62,11111222 
COMPS,ioos:station:USF.COMPS:FHP:1,2019-07-09T17:54:00,28.1530,-82.8010,1014.64,11111222 
COMPS,ioos:station:USF.COMPS:FHP:1,2019-07-09T18:54:00,28.1530,-82.8010,1014.56,11111222 
COMPS,ioos:station:USF.COMPS:FHP:1,2019-07-09T19:54:00,28.1530,-82.8010,1014.14,11111222 
COMPS,ioos:station:USF.COMPS:FHP:1,2019-07-09T20:54:00,28.1530,-82.8010,1013.78,11111222 
COMPS,ioos:station:USF.COMPS:FHP:1,2019-07-09T21:54:00,28.1530,-82.8010,1013.98,11111222 
COMPS,ioos:station:USF.COMPS:FHP:1,2019-07-09T22:54:00,28.1530,-82.8010,1013.7,11111222 
COMPS,ioos:station:USF.COMPS:FHP:1,2019-07-09T23:54:00,28.1530,-82.8010,1013.38,11111222 
COMPS,ioos:station:USF.COMPS:FHP:1,2019-07-10T00:54:00,28.1530,-82.8010,1013.97,11111222 
COMPS,ioos:station:USF.COMPS:FHP:1,2019-07-10T01:54:00,28.1530,-82.8010,1014.66,11111222 
COMPS,ioos:station:USF.COMPS:FHP:1,2019-07-10T02:54:00,28.1530,-82.8010,1015.02,11111222 
COMPS,ioos:station:USF.COMPS:FHP:1,2019-07-10T03:54:00,28.1530,-82.8010,1015.16,11111222 
COMPS,ioos:station:USF.COMPS:FHP:1,2019-07-10T04:54:00,28.1530,-82.8010,1014.93,11111222 
COMPS,ioos:station:USF.COMPS:FHP:1,2019-07-10T05:54:00,28.1530,-82.8010,1014.37,11111222 
COMPS,ioos:station:USF.COMPS:FHP:1,2019-07-10T06:54:00,28.1530,-82.8010,1014.05,11111222 
COMPS,ioos:station:USF.COMPS:FHP:1,2019-07-10T07:54:00,28.1530,-82.8010,1013.7,11111222 
COMPS,ioos:station:USF.COMPS:FHP:1,2019-07-10T08:54:00,28.1530,-82.8010,1013.61,11111222 
COMPS,ioos:station:USF.COMPS:FHP:1,2019-07-10T09:54:00,28.1530,-82.8010,1014.4,11111222 
COMPS,ioos:station:USF.COMPS:FHP:1,2019-07-10T10:54:00,28.1530,-82.8010,1014.62,11111222 
COMPS,ioos:station:USF.COMPS:FHP:1,2019-07-10T11:54:00,28.1530,-82.8010,1014.98,11111222 
COMPS,ioos:station:USF.COMPS:FHP:1,2019-07-10T12:54:00,28.1530,-82.8010,1015.92,11111222 
COMPS,ioos:station:USF.COMPS:FHP:1,2019-07-10T13:54:00,28.1530,-82.8010,1015.65,11111222 
COMPS,ioos:station:USF.COMPS:FHP:1,2019-07-10T14:54:00,28.1530,-82.8010,1016.38,11111222 
COMPS,ioos:station:USF.COMPS:FHP:1,2019-07-10T15:54:00,28.1530,-82.8010,1016.13,11111222 
COMPS,ioos:station:USF.COMPS:FHP:1,2019-07-10T16:54:00,28.1530,-82.8010,1016.3,11111222 
COMPS,ioos:station:USF.COMPS:FHP:1,2019-07-10T17:54:00,28.1530,-82.8010,1015.92,11111222 
COMPS,ioos:station:USF.COMPS:FHP:1,2019-07-10T18:54:00,28.1530,-82.8010,1015.56,11111222 
COMPS,ioos:station:USF.COMPS:FHP:1,2019-07-10T19:54:00,28.1530,-82.8010,1015.0,11111222 
COMPS,ioos:station:USF.COMPS:FHP:1,2019-07-10T20:54:00,28.1530,-82.8010,1014.68,11111222 
COMPS,ioos:station:USF.COMPS:FHP:1,2019-07-10T21:54:00,28.1530,-82.8010,1014.89,11111222 
COMPS,ioos:station:USF.COMPS:FHP:1,2019-07-10T22:54:00,28.1530,-82.8010,1014.66,11111222 
COMPS,ioos:station:USF.COMPS:FHP:1,2019-07-10T23:54:00,28.1530,-82.8010,1015.17,11111222 
COMPS,ioos:station:USF.COMPS:FHP:1,2019-07-11T00:54:00,28.1530,-82.8010,1015.16,11111222 
COMPS,ioos:station:USF.COMPS:FHP:1,2019-07-11T01:54:00,28.1530,-82.8010,1015.53,11111222 
COMPS,ioos:station:USF.COMPS:FHP:1,2019-07-11T02:54:00,28.1530,-82.8010,1015.73,11111222 
COMPS,ioos:station:USF.COMPS:FHP:1,2019-07-11T03:54:00,28.1530,-82.8010,1015.85,11111222 
COMPS,ioos:station:USF.COMPS:FHP:1,2019-07-11T04:54:00,28.1530,-82.8010,1015.1,11111222 
COMPS,ioos:station:USF.COMPS:FHP:1,2019-07-11T05:54:00,28.1530,-82.8010,1014.49,11111222 
COMPS,ioos:station:USF.COMPS:FHP:1,2019-07-11T06:54:00,28.1530,-82.8010,1014.16,11111222 
COMPS,ioos:station:USF.COMPS:FHP:1,2019-07-11T07:54:00,28.1530,-82.8010,1014.02,11111222 
COMPS,ioos:station:USF.COMPS:FHP:1,2019-07-11T08:54:00,28.1530,-82.8010,1013.64,11111222 
COMPS,ioos:station:USF.COMPS:FHP:1,2019-07-11T09:54:00,28.1530,-82.8010,1014.09,11111222 
COMPS,ioos:station:USF.COMPS:FHP:1,2019-07-11T10:54:00,28.1530,-82.8010,1014.61,11111222 
COMPS,ioos:station:USF.COMPS:FHP:1,2019-07-11T11:54:00,28.1530,-82.8010,1015.01,11111222 
COMPS,ioos:station:USF.COMPS:FHP:1,2019-07-11T12:54:00,28.1530,-82.8010,1015.37,11111222 
COMPS,ioos:station:USF.COMPS:FHP:1,2019-07-11T13:54:00,28.1530,-82.8010,1015.74,11111222 
COMPS,ioos:station:USF.COMPS:FHP:1,2019-07-11T14:54:00,28.1530,-82.8010,1015.53,11111222 
COMPS,ioos:station:USF.COMPS:FHP:1,2019-07-11T15:54:00,28.1530,-82.8010,1015.69,11111222 
COMPS,ioos:station:USF.COMPS:FHP:1,2019-07-11T16:54:00,28.1530,-82.8010,1015.09,11111222 
COMPS,ioos:station:USF.COMPS:FHP:1,2019-07-11T17:54:00,28.1530,-82.8010,1014.7,11111222 
COMPS,ioos:station:USF.COMPS:FHP:1,2019-07-11T18:54:00,28.1530,-82.8010,1014.58,11111222 
COMPS,ioos:station:USF.COMPS:FHP:1,2019-07-11T19:54:00,28.1530,-82.8010,1014.42,11111222 
COMPS,ioos:station:USF.COMPS:FHP:1,2019-07-11T20:54:00,28.1530,-82.8010,1013.76,11111222 
COMPS,ioos:station:USF.COMPS:FHP:1,2019-07-11T21:54:00,28.1530,-82.8010,1013.77,11111222 
COMPS,ioos:station:USF.COMPS:FHP:1,2019-07-11T22:54:00,28.1530,-82.8010,1013.85,11111222 
COMPS,ioos:station:USF.COMPS:FHP:1,2019-07-11T23:54:00,28.1530,-82.8010,1013.6,11111222 
COMPS,ioos:station:USF.COMPS:FHP:1,2019-07-12T00:54:00,28.1530,-82.8010,1014.05,11111222 
COMPS,ioos:station:USF.COMPS:FHP:1,2019-07-12T01:54:00,28.1530,-82.8010,1014.65,11111222 
COMPS,ioos:station:USF.COMPS:FHP:1,2019-07-12T02:54:00,28.1530,-82.8010,1015.13,11111222 